QPF
0.02 0.02 0.04 0.04 0.05 0.05 0.04 0.03 0.03 0.03 0.03 0.03 0.02 0.02 0.03 0.03 0.06 0.04 0.08 0.07 0.04 0.04 0.04 0.03 0.03 0.03 0.03 0.03 0.03 0.03 0.04 0.05 0.04 0.04 0.03 0.04 0.07 0.08 0.04 0.03 0.03 0.02 0.02
0.01 0.01 0.03 0.04 0.04 0.03 0.03 0.04 0.06 0.05 0.05 0.03 0.02 0.01 0.02 0.02 0.04 0.06 0.06 0.06 0.04 0.04 0.04 0.04 0.04 0.04 0.03 0.03 0.04 0.03 0.03 0.03 0.04 0.04 0.04 0.03 0.05 0.06 0.06 0.04 0.03 0.02 0.02
0.02 0.01 0.03 0.05 0.06 0.04 0.04 0.05 0.05 0.04 0.03 0.03 0.02 0.02 0.02 0.02 0.03 0.05 0.05 0.04 0.03 0.03 0.04 0.05 0.05 0.04 0.03 0.03 0.03 0.03 0.04 0.04 0.04 0.04 0.04 0.03 0.04 0.04 0.05 0.04 0.03 0.03 0.04
0.02 0.03 0.02 0.04 0.06 0.07 0.06 0.03 0.02 0.02 0.02 0.02 0.02 0.03 0.02 0.03 0.03 0.03 0.03 0.03 0.03 0.03 0.03 0.05 0.06 0.05 0.03 0.03 0.03 0.04 0.04 0.04 0.05 0.04 0.03 0.02 0.04 0.03 0.03 0.02 0.03 0.04 0.04
0.02 0.02 0.02 0.02 0.02 0.05 0.06 0.03 0.01 0.01 0.02 0.03 0.03 0.02 0.02 0.03 0.05 0.03 0.02 0.02 0.02 0.03 0.03 0.05 0.06 0.05 0.03 0.03 0.04 0.04 0.04 0.03 0.04 0.05 0.04 0.04 0.04 0.03 0.03 0.02 0.03 0.03 0.04
0.01 0.01 0.01 0.02 0.02 0.03 0.05 0.04 0.02 0.02 0.02 0.02 0.03 0.03 0.03 0.04 0.05 0.05 0.03 0.03 0.04 0.04 0.05 0.06 0.07 0.06 0.04 0.03 0.03 0.05 0.04 0.03 0.03 0.03 0.04 0.05 0.06 0.05 0.04 0.04 0.04 0.04 0.04
0.01 0.01 0.00 0.01 0.02 0.03 0.05 0.05 0.03 0.03 0.03 0.04 0.05 0.06 0.08 0.09 0.08 0.07 0.06 0.04 0.04 0.05 0.08 0.09 0.08 0.07 0.04 0.04 0.05 0.06 0.04 0.03 0.02 0.03 0.03 0.04 0.05 0.06 0.05 0.04 0.04 0.04 0.04
0.02 0.01 0.01 0.01 0.01 0.01 0.03 0.05 0.05 0.03 0.03 0.04 0.05 0.06 0.09 0.13 0.12 0.12 0.10 0.07 0.06 0.06 0.06 0.08 0.09 0.09 0.06 0.06 0.07 0.12 0.09 0.05 0.04 0.03 0.03 0.03 0.04 0.05 0.05 0.04 0.04 0.04 0.04
0.03 0.02 0.02 0.02 0.01 0.01 0.03 0.06 0.06 0.04 0.05 0.05 0.04 0.04 0.06 0.07 0.09 0.11 0.12 0.11 0.10 0.08 0.06 0.06 0.08 0.07 0.06 0.07 0.08 0.14 0.21 0.13 0.07 0.06 0.05 0.05 0.04 0.04 0.04 0.04 0.04 0.03 0.04
0.04 0.03 0.03 0.03 0.03 0.03 0.04 0.04 0.03 0.05 0.07 0.06 0.05 0.05 0.06 0.05 0.05 0.06 0.09 0.11 0.10 0.11 0.12 0.09 0.07 0.06 0.06 0.05 0.03 0.07 0.20 0.22 0.17 0.12 0.09 0.07 0.06 0.05 0.05 0.04 0.04 0.04 0.04
0.04 0.04 0.05 0.05 0.05 0.05 0.04 0.04 0.04 0.05 0.08 0.09 0.08 0.08 0.08 0.07 0.06 0.05 0.06 0.06 0.07 0.09 0.10 0.09 0.08 0.08 0.09 0.06 0.04 0.04 0.12 0.13 0.11 0.10 0.09 0.08 0.08 0.09 0.07 0.06 0.06 0.05 0.05
0.03 0.04 0.05 0.05 0.06 0.06 0.06 0.06 0.06 0.06 0.07 0.07 0.09 0.10 0.11 0.08 0.07 0.06 0.04 0.04 0.05 0.06 0.07 0.06 0.07 0.07 0.05 0.05 0.05 0.03 0.05 0.07 0.06 0.04 0.03 0.04 0.05 0.07 0.08 0.07 0.06 0.06 0.05
0.02 0.03 0.04 0.04 0.05 0.06 0.07 0.07 0.07 0.08 0.09 0.09 0.10 0.10 0.10 0.16 0.08 0.05 0.04 0.03 0.03 0.04 0.04 0.03 0.03 0.03 0.03 0.03 0.03 0.02 0.02 0.03 0.05 0.03 0.02 0.03 0.03 0.03 0.04 0.04 0.04 0.04 0.05
0.02 0.02 0.03 0.03 0.04 0.06 0.08 0.11 0.13 0.12 0.11 0.10 0.10 0.09 0.08 0.10 0.06 0.04 0.04 0.06 0.04 0.04 0.03 0.02 0.02 0.02 0.02 0.02 0.02 0.01 0.01 0.02 0.03 0.03 0.02 0.02 0.02 0.02 0.03 0.02 0.03 0.03 0.03
0.01 0.01 0.01 0.02 0.04 0.06 0.09 0.11 0.12 0.11 0.08 0.08 0.09 0.08 0.06 0.05 0.05 0.04 0.05 0.06 0.06 0.05 0.04 0.03 0.02 0.01 0.01 0.02 0.02 0.01 0.01 0.01 0.01 0.02 0.01 0.01 0.01 0.02 0.02 0.01 0.01 0.02 0.02
0.00 0.00 0.01 0.02 0.02 0.04 0.05 0.05 0.05 0.05 0.06 0.07 0.07 0.06 0.05 0.05 0.05 0.04 0.05 0.06 0.06 0.05 0.04 0.02 0.01 0.00 0.00 0.01 0.02 0.01 0.01 0.01 0.01 0.01 0.02 0.01 0.01 0.01 0.01 0.01 0.00 0.00 0.01
0.01 0.01 0.02 0.01 0.01 0.02 0.02 0.03 0.04 0.05 0.05 0.04 0.04 0.04 0.05 0.06 0.05 0.03 0.03 0.04 0.05 0.04 0.03 0.02 0.01 0.01 0.01 0.01 0.01 0.01 0.01 0.01 0.01 0.01 0.01 0.01 0.01 0.01 0.02 0.02 0.01 0.00 0.01
0.01 0.01 0.01 0.02 0.02 0.02 0.02 0.02 0.02 0.02 0.02 0.02 0.02 0.02 0.03 0.05 0.04 0.03 0.02 0.02 0.02 0.03 0.03 0.02 0.02 0.03 0.03 0.02 0.03 0.03 0.02 0.02 0.02 0.01 0.01 0.01 0.01 0.01 0.01 0.02 0.02 0.01 0.01
0.02 0.02 0.02 0.02 0.02 0.02 0.01 0.01 0.01 0.01 0.01 0.02 0.02 0.02 0.02 0.03 0.03 0.03 0.03 0.02 0.03 0.03 0.03 0.02 0.01 0.02 0.03 0.02 0.03 0.03 0.03 0.03 0.02 0.02 0.02 0.01 0.01 0.01 0.01 0.02 0.03 0.02 0.01
0.02 0.02 0.01 0.01 0.01 0.02 0.01 0.01 0.01 0.01 0.01 0.01 0.02 0.02 0.02 0.02 0.02 0.03 0.03 0.03 0.04 0.03 0.03 0.02 0.01 0.01 0.01 0.02 0.02 0.03 0.04 0.04 0.03 0.02 0.02 0.02 0.02 0.02 0.02 0.02 0.02 0.02 0.01
0.02 0.02 0.01 0.01 0.02 0.03 0.02 0.01 0.01 0.02 0.02 0.02 0.02 0.02 0.02 0.02 0.02 0.02 0.02 0.03 0.03 0.03 0.02 0.02 0.01 0.01 0.01 0.01 0.01 0.02 0.03 0.04 0.04 0.03 0.02 0.02 0.02 0.02 0.01 0.01 0.02 0.02 0.02
0.02 0.01 0.01 0.01 0.02 0.02 0.02 0.02 0.02 0.02 0.02 0.03 0.03 0.03 0.03 0.02 0.02 0.02 0.02 0.03 0.03 0.03 0.02 0.02 0.01 0.00 0.00 0.01 0.01 0.01 0.01 0.02 0.03 0.02 0.02 0.02 0.02 0.01 0.01 0.01 0.01 0.02 0.02
0.02 0.01 0.01 0.01 0.01 0.02 0.03 0.03 0.03 0.03 0.03 0.03 0.03 0.03 0.02 0.01 0.01 0.02 0.02 0.02 0.02 0.03 0.02 0.02 0.01 0.00 0.01 0.01 0.02 0.02 0.01 0.01 0.01 0.02 0.03 0.03 0.03 0.02 0.01 0.01 0.01 0.01 0.02
0.03 0.02 0.02 0.02 0.02 0.02 0.03 0.04 0.04 0.04 0.03 0.03 0.03 0.03 0.02 0.02 0.02 0.02 0.02 0.02 0.01 0.02 0.02 0.02 0.01 0.01 0.01 0.02 0.02 0.03 0.03 0.02 0.01 0.02 0.03 0.03 0.03 0.02 0.02 0.02 0.02 0.01 0.01
0.04 0.03 0.03 0.03 0.04 0.04 0.05 0.07 0.07 0.05 0.03 0.03 0.03 0.02 0.01 0.01 0.03 0.04 0.03 0.02 0.01 0.01 0.02 0.02 0.01 0.01 0.02 0.02 0.02 0.03 0.03 0.04 0.02 0.02 0.03 0.02 0.02 0.03 0.03 0.03 0.02 0.02 0.01
0.04 0.05 0.06 0.07 0.08 0.07 0.09 0.10 0.11 0.07 0.05 0.04 0.03 0.02 0.02 0.03 0.04 0.04 0.02 0.02 0.02 0.02 0.01 0.01 0.01 0.02 0.02 0.02 0.01 0.01 0.01 0.03 0.03 0.03 0.02 0.01 0.01 0.02 0.03 0.04 0.03 0.02 0.01
MSLP
1016.56 1016.55 1016.47 1016.36 1016.25 1016.18 1016.19 1016.29 1016.47 1016.70 1016.96 1017.21 1017.42 1017.57 1017.65 1017.65 1017.60 1017.49 1017.34 1017.15 1016.92 1016.65 1016.36 1016.07 1015.78 1015.54 1015.37 1015.29 1015.31 1015.44 1015.65 1015.93 1016.24 1016.55 1016.84 1017.09 1017.29 1017.45 1017.58 1017.67 1017.76 1017.83 1017.90
1016.40 1016.42 1016.40 1016.36 1016.33 1016.33 1016.41 1016.55 1016.78 1017.06 1017.38 1017.69 1017.95 1018.16 1018.28 1018.32 1018.27 1018.14 1017.96 1017.73 1017.46 1017.17 1016.87 1016.59 1016.33 1016.11 1015.95 1015.87 1015.88 1015.97 1016.13 1016.35 1016.61 1016.88 1017.14 1017.38 1017.58 1017.74 1017.86 1017.94 1018.00 1018.05 1018.08
1016.15 1016.22 1016.28 1016.33 1016.39 1016.49 1016.64 1016.85 1017.12 1017.45 1017.81 1018.16 1018.48 1018.73 1018.89 1018.96 1018.92 1018.78 1018.58 1018.31 1018.02 1017.72 1017.43 1017.16 1016.93 1016.75 1016.62 1016.55 1016.54 1016.60 1016.72 1016.88 1017.08 1017.31 1017.53 1017.75 1017.94 1018.09 1018.21 1018.29 1018.34 1018.38 1018.40
1015.86 1015.98 1016.12 1016.27 1016.45 1016.65 1016.88 1017.15 1017.47 1017.82 1018.21 1018.59 1018.94 1019.23 1019.43 1019.52 1019.50 1019.37 1019.16 1018.89 1018.58 1018.28 1018.00 1017.75 1017.56 1017.41 1017.31 1017.26 1017.25 1017.29 1017.36 1017.47 1017.62 1017.79 1017.98 1018.17 1018.35 1018.50 1018.62 1018.71 1018.76 1018.79 1018.81
1015.55 1015.72 1015.94 1016.20 1016.48 1016.78 1017.09 1017.41 1017.75 1018.13 1018.52 1018.91 1019.29 1019.61 1019.85 1019.98 1019.99 1019.89 1019.69 1019.43 1019.13 1018.84 1018.57 1018.35 1018.19 1018.07 1018.01 1017.97 1017.97 1017.98 1018.03 1018.10 1018.20 1018.32 1018.47 1018.64 1018.80 1018.94 1019.07 1019.16 1019.22 1019.26 1019.28
1015.26 1015.47 1015.76 1016.12 1016.49 1016.87 1017.23 1017.58 1017.94 1018.31 1018.70 1019.09 1019.48 1019.83 1020.11 1020.30 1020.37 1020.31 1020.16 1019.93 1019.66 1019.39 1019.15 1018.96 1018.82 1018.74 1018.69 1018.67 1018.67 1018.68 1018.69 1018.73 1018.79 1018.89 1019.00 1019.14 1019.28 1019.42 1019.54 1019.63 1019.70 1019.74 1019.77
1015.00 1015.24 1015.59 1016.01 1016.45 1016.87 1017.27 1017.64 1017.99 1018.34 1018.71 1019.10 1019.49 1019.88 1020.21 1020.46 1020.61 1020.63 1020.55 1020.38 1020.17 1019.94 1019.74 1019.57 1019.46 1019.40 1019.36 1019.35 1019.35 1019.35 1019.36 1019.37 1019.41 1019.47 1019.56 1019.67 1019.79 1019.92 1020.03 1020.12 1020.18 1020.22 1020.25
1014.77 1015.03 1015.40 1015.85 1016.33 1016.78 1017.18 1017.54 1017.87 1018.19 1018.53 1018.91 1019.32 1019.73 1020.13 1020.46 1020.70 1020.83 1020.84 1020.77 1020.63 1020.46 1020.30 1020.18 1020.09 1020.04 1020.02 1020.01 1020.01 1020.01 1020.00 1020.00 1020.02 1020.06 1020.13 1020.22 1020.33 1020.43 1020.53 1020.60 1020.64 1020.67 1020.69
1014.58 1014.82 1015.19 1015.64 1016.12 1016.56 1016.95 1017.28 1017.58 1017.87 1018.18 1018.55 1018.96 1019.42 1019.87 1020.29 1020.64 1020.88 1021.01 1021.04 1021.00 1020.91 1020.81 1020.73 1020.67 1020.64 1020.62 1020.62 1020.62 1020.61 1020.60 1020.59 1020.60 1020.64 1020.69 1020.77 1020.86 1020.95 1021.02 1021.07 1021.09 1021.09 1021.08
1014.38 1014.59 1014.94 1015.37 1015.81 1016.23 1016.59 1016.88 1017.14 1017.40 1017.69 1018.04 1018.46 1018.95 1019.46 1019.96 1020.40 1020.76 1021.01 1021.16 1021.22 1021.23 1021.20 1021.17 1021.14 1021.13 1021.13 1021.13 1021.13 1021.12 1021.11 1021.11 1021.12 1021.15 1021.21 1021.28 1021.36 1021.43 1021.49 1021.51 1021.51 1021.48 1021.45
1014.16 1014.34 1014.64 1015.01 1015.42 1015.79 1016.11 1016.38 1016.61 1016.84 1017.11 1017.45 1017.87 1018.37 1018.92 1019.48 1020.00 1020.45 1020.81 1021.07 1021.24 1021.34 1021.40 1021.43 1021.46 1021.48 1021.50 1021.51 1021.51 1021.51 1021.51 1021.51 1021.53 1021.58 1021.64 1021.72 1021.80 1021.87 1021.91 1021.92 1021.90 1021.86 1021.79
1013.90 1014.03 1014.27 1014.60 1014.95 1015.28 1015.58 1015.82 1016.03 1016.24 1016.49 1016.81 1017.22 1017.72 1018.28 1018.87 1019.44 1019.96 1020.40 1020.75 1021.02 1021.22 1021.37 1021.48 1021.56 1021.63 1021.68 1021.71 1021.74 1021.75 1021.76 1021.78 1021.82 1021.88 1021.96 1022.05 1022.14 1022.22 1022.27 1022.28 1022.26 1022.21 1022.13
1013.57 1013.65 1013.85 1014.12 1014.43 1014.73 1015.00 1015.23 1015.44 1015.64 1015.88 1016.19 1016.57 1017.05 1017.59 1018.17 1018.75 1019.30 1019.79 1020.21 1020.56 1020.85 1021.09 1021.28 1021.44 1021.57 1021.67 1021.74 1021.79 1021.83 1021.87 1021.91 1021.97 1022.05 1022.16 1022.27 1022.39 1022.49 1022.56 1022.59 1022.58 1022.54 1022.47
1013.17 1013.22 1013.38 1013.61 1013.88 1014.17 1014.43 1014.66 1014.87 1015.08 1015.31 1015.59 1015.95 1016.37 1016.87 1017.40 1017.96 1018.50 1019.01 1019.48 1019.90 1020.27 1020.59 1020.87 1021.12 1021.32 1021.49 1021.62 1021.72 1021.79 1021.86 1021.93 1022.01 1022.12 1022.25 1022.40 1022.55 1022.68 1022.78 1022.84 1022.86 1022.84 1022.79
1012.69 1012.73 1012.85 1013.06 1013.32 1013.59 1013.86 1014.11 1014.33 1014.55 1014.78 1015.04 1015.35 1015.72 1016.14 1016.61 1017.11 1017.62 1018.13 1018.62 1019.08 1019.52 1019.94 1020.32 1020.65 1020.95 1021.19 1021.39 1021.55 1021.67 1021.77 1021.88 1021.99 1022.13 1022.28 1022.46 1022.63 1022.79 1022.93 1023.03 1023.09 1023.10 1023.08
1012.15 1012.18 1012.29 1012.48 1012.73 1013.01 1013.29 1013.55 1013.80 1014.03 1014.25 1014.49 1014.76 1015.07 1015.42 1015.82 1016.25 1016.71 1017.19 1017.69 1018.19 1018.69 1019.19 1019.66 1020.10 1020.49 1020.83 1021.11 1021.33 1021.51 1021.66 1021.80 1021.94 1022.10 1022.28 1022.47 1022.67 1022.86 1023.03 1023.16 1023.25 1023.30 1023.32
1011.57 1011.60 1011.71 1011.89 1012.13 1012.41 1012.69 1012.98 1013.24 1013.48 1013.70 1013.92 1014.15 1014.41 1014.69 1015.01 1015.38 1015.79 1016.25 1016.74 1017.28 1017.83 1018.40 1018.96 1019.50 1019.99 1020.42 1020.79 1021.09 1021.33 1021.53 1021.70 1021.87 1022.05 1022.25 1022.46 1022.67 1022.88 1023.06 1023.21 1023.33 1023.41 1023.46
1010.97 1011.01 1011.11 1011.28 1011.51 1011.78 1012.06 1012.35 1012.61 1012.86 1013.08 1013.28 1013.48 1013.69 1013.92 1014.19 1014.51 1014.88 1015.31 1015.81 1016.36 1016.96 1017.59 1018.23 1018.86 1019.44 1019.96 1020.41 1020.79 1021.10 1021.35 1021.57 1021.78 1021.98 1022.19 1022.41 1022.62 1022.84 1023.03 1023.19 1023.33 1023.43 1023.50
1010.40 1010.45 1010.54 1010.69 1010.89 1011.13 1011.39 1011.65 1011.90 1012.13 1012.34 1012.53 1012.71 1012.89 1013.09 1013.33 1013.61 1013.96 1014.38 1014.87 1015.44 1016.07 1016.75 1017.45 1018.14 1018.80 1019.40 1019.93 1020.38 1020.76 1021.08 1021.35 1021.59 1021.83 1022.06 1022.28 1022.51 1022.72 1022.92 1023.09 1023.22 1023.34 1023.42
1009.90 1009.95 1010.02 1010.14 1010.29 1010.48 1010.69 1010.90 1011.11 1011.31 1011.49 1011.66 1011.82 1011.99 1012.18 1012.40 1012.67 1013.01 1013.41 1013.91 1014.48 1015.12 1015.82 1016.56 1017.30 1018.01 1018.67 1019.27 1019.80 1020.24 1020.63 1020.96 1021.26 1021.53 1021.79 1022.04 1022.28 1022.51 1022.71 1022.88 1023.03 1023.15 1023.25
1009.51 1009.55 1009.59 1009.66 1009.75 1009.86 1009.99 1010.13 1010.27 1010.41 1010.55 1010.69 1010.84 1011.01 1011.19 1011.41 1011.68 1012.00 1012.41 1012.89 1013.45 1014.09 1014.79 1015.52 1016.28 1017.02 1017.73 1018.38 1018.97 1019.49 1019.95 1020.35 1020.71 1021.04 1021.35 1021.65 1021.92 1022.16 1022.38 1022.58 1022.74 1022.88 1023.01
1009.25 1009.27 1009.27 1009.28 1009.29 1009.31 1009.33 1009.37 1009.42 1009.49 1009.58 1009.68 1009.81 1009.97 1010.15 1010.37 1010.64 1010.96 1011.35 1011.81 1012.34 1012.95 1013.62 1014.34 1015.08 1015.83 1016.56 1017.25 1017.89 1018.48 1019.01 1019.49 1019.93 1020.34 1020.72 1021.07 1021.39 1021.69 1021.95 1022.18 1022.38 1022.55 1022.71
1009.10 1009.10 1009.06 1009.00 1008.93 1008.84 1008.75 1008.68 1008.63 1008.61 1008.63 1008.69 1008.79 1008.93 1009.11 1009.33 1009.59 1009.90 1010.27 1010.69 1011.18 1011.74 1012.36 1013.03 1013.74 1014.47 1015.20 1015.92 1016.60 1017.24 1017.85 1018.41 1018.94 1019.43 1019.89 1020.32 1020.72 1021.08 1021.40 1021.69 1021.95 1022.18 1022.39
1009.04 1009.02 1008.94 1008.82 1008.65 1008.46 1008.27 1008.08 1007.92 1007.82 1007.76 1007.77 1007.84 1007.97 1008.14 1008.35 1008.60 1008.88 1009.22 1009.59 1010.03 1010.52 1011.08 1011.69 1012.36 1013.05 1013.77 1014.49 1015.20 1015.89 1016.55 1017.19 1017.80 1018.37 1018.92 1019.43 1019.92 1020.36 1020.76 1021.13 1021.46 1021.76 1022.04
1009.00 1008.95 1008.84 1008.66 1008.42 1008.14 1007.85 1007.57 1007.32 1007.13 1007.02 1006.98 1007.01 1007.11 1007.27 1007.46 1007.69 1007.95 1008.25 1008.58 1008.95 1009.38 1009.87 1010.42 1011.03 1011.69 1012.38 1013.09 1013.81 1014.53 1015.24 1015.93 1016.61 1017.25 1017.88 1018.47 1019.03 1019.56 1020.05 1020.50 1020.91 1021.29 1021.65
1008.90 1008.84 1008.69 1008.47 1008.17 1007.83 1007.46 1007.11 1006.79 1006.54 1006.38 1006.30 1006.31 1006.39 1006.53 1006.70 1006.91 1007.15 1007.40 1007.69 1008.01 1008.39 1008.82 1009.32 1009.87 1010.49 1011.15 1011.85 1012.57 1013.30 1014.03 1014.75 1015.46 1016.16 1016.83 1017.48 1018.11 1018.71 1019.27 1019.80 1020.30 1020.76 1021.19
Thickness
5787 5786 5785 5784 5783 5782 5781 5779 5778 5778 5776 5775 5775 5774 5772 5770 5769 5767 5766 5765 5763 5762 5760 5758 5756 5755 5753 5751 5750 5748 5746 5744 5742 5741 5739 5738 5736 5735 5733 5732 5731 5729 5728
5787 5786 5785 5783 5782 5782 5781 5779 5778 5777 5776 5775 5773 5773 5772 5771 5769 5767 5766 5765 5763 5761 5760 5758 5756 5754 5753 5751 5749 5747 5745 5744 5742 5741 5739 5738 5736 5734 5733 5732 5730 5729 5728
5787 5786 5784 5782 5781 5781 5780 5778 5777 5775 5774 5773 5772 5771 5771 5770 5768 5767 5766 5764 5763 5761 5760 5758 5756 5754 5752 5751 5749 5747 5745 5743 5742 5740 5739 5737 5736 5734 5732 5731 5729 5728 5727
5787 5785 5783 5782 5781 5780 5779 5777 5775 5772 5771 5770 5769 5769 5769 5768 5768 5767 5765 5763 5762 5760 5759 5758 5756 5754 5752 5750 5748 5746 5744 5743 5741 5740 5738 5737 5735 5733 5732 5730 5728 5727 5726
5787 5785 5783 5781 5780 5779 5777 5776 5773 5771 5769 5767 5767 5767 5767 5766 5766 5766 5764 5762 5761 5760 5759 5757 5755 5753 5751 5749 5747 5746 5744 5742 5740 5739 5738 5736 5734 5733 5731 5729 5728 5726 5725
5787 5784 5782 5780 5779 5777 5775 5774 5772 5770 5768 5766 5766 5764 5764 5764 5763 5762 5762 5761 5760 5758 5757 5755 5753 5751 5749 5747 5746 5744 5743 5741 5740 5738 5737 5735 5734 5732 5730 5728 5727 5725 5724
5785 5783 5781 5779 5778 5775 5774 5772 5770 5767 5764 5764 5760 5756 5758 5760 5759 5759 5759 5758 5757 5756 5754 5753 5751 5749 5747 5745 5744 5742 5741 5740 5739 5737 5736 5734 5732 5731 5729 5727 5726 5724 5722
5784 5782 5780 5777 5776 5774 5772 5770 5767 5763 5761 5761 5755 5749 5745 5747 5752 5755 5754 5753 5753 5752 5750 5749 5748 5747 5745 5743 5741 5740 5739 5739 5738 5736 5734 5732 5731 5729 5727 5725 5724 5722 5721
5783 5781 5779 5776 5774 5772 5769 5768 5766 5762 5757 5756 5755 5749 5740 5736 5740 5745 5748 5748 5748 5747 5746 5745 5744 5743 5741 5740 5739 5737 5737 5737 5736 5734 5732 5730 5728 5727 5725 5723 5721 5720 5719
5781 5779 5777 5775 5772 5770 5767 5766 5764 5761 5757 5751 5751 5751 5748 5743 5736 5733 5737 5741 5743 5742 5742 5742 5740 5739 5738 5736 5735 5734 5733 5732 5732 5731 5730 5728 5726 5724 5722 5721 5719 5718 5716
5779 5777 5775 5772 5770 5768 5765 5763 5761 5758 5755 5750 5747 5745 5743 5741 5738 5731 5727 5731 5734 5737 5738 5738 5737 5735 5734 5732 5731 5730 5730 5728 5727 5726 5725 5724 5723 5721 5720 5718 5716 5715 5713
5775 5774 5772 5770 5767 5765 5762 5760 5757 5754 5752 5750 5747 5744 5740 5736 5733 5730 5725 5724 5725 5729 5732 5733 5732 5731 5729 5728 5727 5727 5726 5724 5723 5722 5721 5719 5718 5717 5716 5714 5712 5711 5710
5771 5770 5770 5767 5765 5763 5760 5757 5754 5751 5749 5746 5744 5741 5739 5737 5735 5731 5726 5722 5721 5723 5725 5727 5727 5727 5726 5725 5723 5722 5721 5720 5719 5717 5716 5715 5714 5712 5711 5710 5708 5707 5706
5771 5769 5767 5765 5762 5760 5758 5754 5751 5748 5746 5743 5741 5739 5737 5736 5735 5732 5727 5722 5716 5716 5717 5719 5722 5722 5722 5721 5720 5718 5716 5715 5714 5713 5711 5710 5709 5708 5706 5705 5704 5702 5701
5770 5767 5764 5761 5759 5757 5754 5751 5748 5745 5743 5741 5739 5737 5736 5735 5733 5731 5729 5725 5717 5710 5709 5713 5715 5717 5717 5716 5715 5714 5712 5711 5709 5708 5706 5705 5704 5703 5701 5700 5699 5698 5697
5767 5764 5761 5758 5755 5753 5750 5748 5744 5743 5740 5737 5736 5734 5732 5731 5730 5728 5726 5724 5721 5714 5707 5709 5711 5712 5712 5711 5710 5708 5707 5705 5704 5702 5701 5699 5698 5697 5696 5695 5694 5693 5692
5764 5761 5758 5755 5751 5748 5746 5743 5740 5738 5736 5733 5732 5730 5728 5727 5725 5724 5722 5720 5716 5712 5705 5705 5707 5708 5706 5705 5704 5703 5701 5700 5698 5697 5695 5694 5693 5692 5691 5690 5689 5688 5687
5761 5758 5755 5751 5748 5745 5743 5739 5736 5734 5731 5728 5727 5725 5723 5722 5720 5719 5716 5714 5712 5709 5704 5699 5699 5700 5699 5699 5698 5696 5696 5694 5693 5691 5690 5689 5688 5687 5686 5685 5684 5683 5683
5757 5755 5751 5747 5744 5741 5739 5736 5733 5730 5727 5725 5722 5720 5718 5716 5714 5712 5711 5709 5707 5706 5702 5696 5694 5694 5693 5693 5692 5691 5690 5688 5688 5686 5685 5684 5683 5682 5681 5680 5679 5679 5678
5753 5751 5747 5744 5741 5738 5735 5732 5729 5726 5723 5721 5719 5717 5714 5712 5709 5707 5705 5703 5701 5698 5696 5692 5689 5687 5686 5686 5684 5682 5681 5681 5681 5681 5680 5679 5678 5677 5676 5675 5674 5674 5673
5750 5746 5743 5740 5737 5734 5732 5728 5725 5722 5719 5716 5714 5712 5711 5709 5707 5704 5702 5698 5696 5692 5688 5685 5682 5681 5679 5678 5676 5676 5674 5674 5674 5674 5673 5672 5672 5671 5671 5670 5669 5669 5669
5744 5741 5738 5735 5732 5731 5728 5725 5722 5718 5715 5712 5709 5707 5706 5704 5702 5700 5698 5696 5693 5689 5684 5680 5677 5675 5674 5674 5672 5671 5668 5666 5665 5668 5666 5665 5666 5665 5666 5666 5665 5665 5664
5737 5735 5732 5730 5727 5725 5723 5721 5718 5714 5710 5707 5705 5702 5701 5700 5697 5694 5692 5691 5689 5687 5685 5680 5675 5673 5671 5670 5668 5665 5663 5662 5662 5663 5661 5658 5660 5659 5662 5662 5662 5661 5660
5731 5728 5726 5724 5722 5720 5718 5715 5712 5708 5705 5703 5701 5698 5695 5693 5692 5688 5686 5684 5682 5681 5680 5678 5675 5674 5672 5669 5666 5664 5661 5659 5659 5659 5657 5653 5654 5654 5657 5657 5657 5656 5655
5724 5722 5721 5718 5715 5713 5712 5709 5706 5701 5698 5697 5696 5694 5691 5688 5686 5684 5679 5676 5675 5674 5675 5673 5672 5670 5668 5666 5663 5658 5654 5650 5649 5650 5652 5649 5648 5647 5649 5651 5652 5651 5650
5718 5716 5714 5711 5709 5706 5705 5703 5700 5695 5692 5689 5688 5687 5685 5683 5680 5678 5674 5670 5667 5667 5667 5666 5665 5663 5661 5660 5658 5654 5651 5646 5643 5643 5646 5644 5643 5640 5640 5644 5645 5645 5645